This is the latest recevied weather packets stored in our database for station/object OE3APM-13. If no packets are shown the sender has not sent any weather packets the latest 10 day(s).
| Time | Temp. | Humidity | Pressure | Rain* | Wind** | Luminosity | Snow |
|---|---|---|---|---|---|---|---|
| 1777624655 | 13.89° C | 46% | 1029 hPa | 0 mm | - | 705 W/m² | - |
| 1777624355 | 13.89° C | 49% | 1029 hPa | 0 mm | - | 717 W/m² | - |
| 1777624056 | 13.33° C | 47% | 1029 hPa | 0 mm | - | 712 W/m² | - |
| 1777623755 | 13.33° C | 48% | 1029.1 hPa | 0 mm | - | 698 W/m² | - |
| 1777623451 | 13.33° C | 47% | 1029.1 hPa | 0 mm | - | 693 W/m² | - |
| 1777623152 | 13.33° C | 49% | 1029.1 hPa | 0 mm | - | 680 W/m² | - |
| 1777622853 | 13.33° C | 47% | 1029.1 hPa | 0 mm | - | 670 W/m² | - |
| 1777622551 | 13.33° C | 46% | 1029.1 hPa | 0 mm | - | 663 W/m² | - |
| 1777622251 | 13.33° C | 49% | 1029.2 hPa | 0 mm | - | 650 W/m² | - |
| 1777621949 | 12.78° C | 48% | 1029.2 hPa | 0 mm | - | 638 W/m² | - |
| 1777621649 | 12.78° C | 49% | 1029.2 hPa | 0 mm | - | 622 W/m² | - |
| 1777621350 | 12.78° C | 48% | 1029.4 hPa | 0 mm | - | 615 W/m² | - |
| 1777621052 | 12.78° C | 47% | 1029.4 hPa | 0 mm | - | 606 W/m² | - |
| 1777620749 | 12.78° C | 52% | 1029.2 hPa | 0 mm | - | 594 W/m² | - |
| 1777620449 | 12.22° C | 53% | 1029.1 hPa | 0 mm | - | 582 W/m² | - |
| 1777620150 | 11.67° C | 51% | 1029.1 hPa | 0 mm | - | 566 W/m² | - |
| 1777619849 | 11.67° C | 52% | 1029.1 hPa | 0 mm | - | 557 W/m² | - |
| 1777619548 | 11.11° C | 51% | 1029.1 hPa | 0 mm | - | 541 W/m² | - |
| 1777619250 | 11.11° C | 53% | 1029.1 hPa | 0 mm | - | 531 W/m² | - |
| 1777618949 | 10.56° C | 53% | 1029.1 hPa | 0 mm | - | 517 W/m² | - |
| 1777618649 | 10.56° C | 58% | 1029 hPa | 0 mm | - | 501 W/m² | - |
| 1777618351 | 10° C | 55% | 1029 hPa | 0 mm | - | 489 W/m² | - |
| 1777618050 | 9.44° C | 56% | 1029.1 hPa | 0 mm | - | 476 W/m² | - |
| 1777617749 | 9.44° C | 62% | 1029.1 hPa | 0 mm | - | 464 W/m² | - |
| 1777617449 | 8.89° C | 59% | 1029.1 hPa | 0 mm | - | 448 W/m² | - |
* Rain latest hour (hover to see other rain measurements)
** Current wind speed in m/s (hover to see current wind gust speed)